Location: Hardenberg
(52.5670°N, 6.6170°E)
Time: 07:31:49
(UTC+02:00)

ISS - Pass Details

Date: 18 May 2021
Orbit: 417 x 422 km, 51.6° (Epoch: 12 June)

Event Time Altitude Azimuth Distance (km) Brightness Sun altitude
Rises 22:52:04 0° 246° (WSW) 2,360 0.2 -10.0°
Reaches altitude 10° 22:54:11 10° 242° (WSW) 1,499 -0.8 -10.2°
Maximum altitude 22:57:29 56° 164° (SSE) 508 -3.7 -10.5°
Drops below altitude 10° 23:00:48 10° 85° (E) 1,506 -1.2 -10.8°
Sets 23:02:55 0° 81° (E) 2,373 -0.2 -11.0°
